Location: Cottbus
(51.7000°N, 14.3000°E)
Time: 10:34:12
(UTC+01:00)

ISS - Pass Details

Date: 02 February 2019
Orbit: 403 x 411 km, 51.6° (Epoch: 16 February)

Event Time Altitude Azimuth Distance (km) Brightness Sun altitude
Rises 18:04:31 0° 273° (W) 2,335 1.7 -11.3°
Reaches altitude 10° 18:06:36 10° 273° (W) 1,475 0.4 -11.6°
Maximum altitude 18:09:55 90° 314° (NW) 416 -3.8 -12.1°
Enters shadow 18:12:00 21° 94° (E) 985 -2.5 -12.4°
